Location: Newark
(21.1200°N, 73.4000°E)
Time: 04:14:51
(UTC+00:00)

Explorer 11/Cluster Stage 4 - Pass Details

Date: 20 January 2020
Orbit: 467 x 1259 km, 28.8° (Epoch: 17 February)

Event Time Altitude Azimuth Distance (km) Brightness Sun altitude
Rises 12:58:04 0° 281° (W) 3,813 11.3 -2.9°
Reaches altitude 10° 13:01:14 10° 288° (WNW) 2,728 10.2 -3.6°
Maximum altitude 13:07:17 38° 355° (N) 1,243 7.5 -4.9°
Drops below altitude 10° 13:12:11 10° 64° (ENE) 2,198 8.2 -6.0°
Enters shadow 13:12:48 - 67° (ENE) 2,404 8.4 -6.1°
Sets 13:14:30 0° 73° (ENE) 2,998 - -6.5°
